CAPE
0 0 0 0 0 0 0 0 0 0 0 0 0 0 0 0 0 0 0 0 0 0 0 0 0 0 0 0 0 2 2 1 2 0 2 2 0 6 3 6 0 0 0
0 0 0 0 0 0 0 0 0 0 0 0 0 0 0 0 0 0 0 0 0 0 0 0 0 1 0 0 1 0 0 0 1 1 0 0 2 0 2 0 9 0 0
0 0 0 0 0 0 0 0 0 0 0 0 0 0 0 0 0 0 0 0 0 0 0 0 0 0 0 1 0 0 0 0 0 1 0 1 0 0 1 1 2 1 0
0 0 0 0 0 0 0 0 0 0 0 0 0 0 0 0 0 0 0 0 0 0 0 0 0 0 0 1 1 1 1 1 2 2 0 1 1 0 1 2 1 2 0
0 0 0 0 0 0 0 0 0 0 0 0 0 0 0 0 0 0 0 0 0 0 0 0 0 0 0 0 2 2 3 2 1 2 2 1 2 2 1 2 2 1 0
0 0 0 0 0 0 0 0 0 0 0 0 0 0 0 0 0 0 0 0 0 0 0 0 0 0 0 0 0 0 0 2 2 3 3 3 0 1 1 1 1 2 3
0 0 0 0 0 0 0 0 0 0 0 0 0 0 0 0 0 0 0 0 0 0 0 0 0 0 0 0 0 0 0 0 1 2 2 1 2 1 1 0 0 1 2
0 0 0 0 0 0 0 0 0 0 0 0 0 0 0 0 0 0 0 0 0 0 0 0 0 0 0 0 0 0 0 0 1 1 2 1 1 0 1 1 1 2 1
0 0 0 0 0 0 0 0 0 0 0 0 0 0 0 0 0 0 0 0 0 0 0 0 0 0 0 0 0 0 0 0 0 0 0 0 0 0 0 0 0 1 2
0 0 0 0 0 0 0 0 0 0 0 0 0 0 0 0 0 0 0 0 0 0 0 0 0 0 0 0 0 0 0 0 0 0 0 0 0 2 1 0 0 1 2
0 0 0 0 0 0 0 0 0 0 0 0 0 0 0 0 0 0 0 0 0 0 0 0 0 0 0 0 0 0 0 0 0 2 1 1 1 2 2 2 0 1 0
0 0 0 0 0 0 0 0 0 0 0 0 0 0 0 0 0 0 0 0 0 0 0 0 0 0 0 0 0 0 0 0 0 1 1 0 2 2 2 1 1 0 0
0 0 0 0 0 0 0 0 0 0 0 0 0 0 0 0 0 0 0 0 0 0 0 0 0 0 0 0 0 0 0 0 0 0 1 0 5 3 2 1 0 0 0
0 0 0 0 0 0 0 0 0 0 0 0 0 0 0 0 0 0 0 0 0 0 0 0 0 0 0 0 0 0 0 0 0 0 0 2 1 0 2 2 0 0 0
0 0 0 0 0 0 0 0 0 0 0 0 0 0 0 0 0 0 0 0 0 0 0 0 0 0 0 0 0 0 0 0 0 0 0 0 0 0 1 2 1 1 7
0 0 0 0 0 0 0 0 0 0 0 0 0 0 0 0 0 0 0 0 0 0 0 0 0 0 0 0 0 0 0 0 0 0 0 0 0 0 1 1 2 3 2
0 0 0 0 0 0 0 0 0 0 0 0 0 0 0 0 0 0 0 0 0 0 0 0 0 0 0 0 0 0 0 0 0 0 0 0 0 0 0 2 3 4 2
0 0 0 0 0 0 0 0 0 0 0 0 0 0 0 0 0 0 0 0 0 0 0 0 0 0 0 0 0 0 0 0 0 0 0 0 0 0 0 0 2 5 3
0 0 0 0 0 0 0 0 0 0 0 0 0 0 0 0 0 0 0 0 0 0 0 0 0 0 0 0 0 0 0 0 0 0 0 0 0 0 0 0 0 0 3
0 0 0 0 0 0 0 0 0 0 0 0 0 0 0 0 0 0 0 0 0 0 0 0 0 0 0 0 0 0 0 0 0 0 0 0 0 0 0 0 0 1 1
0 0 0 0 0 0 0 0 0 0 0 0 0 0 0 0 0 0 0 0 0 0 0 0 0 0 0 0 0 0 0 0 0 0 0 0 0 0 0 0 0 0 0
0 0 0 0 0 0 0 0 0 0 0 0 0 0 0 0 0 0 0 0 0 0 0 0 0 0 0 0 0 0 0 0 0 0 0 0 0 0 0 0 0 0 0
0 0 0 0 0 0 0 0 0 0 0 0 0 0 0 0 0 0 0 0 0 0 0 0 0 0 0 0 0 0 0 0 0 0 0 0 0 0 0 0 0 0 0
0 0 0 0 0 0 0 0 0 0 0 0 0 0 0 0 0 0 0 0 0 0 0 0 0 0 0 0 0 0 0 0 0 0 0 0 0 0 0 0 0 0 0
0 0 0 0 0 0 0 0 0 0 0 0 0 0 0 0 0 0 0 0 0 0 0 0 0 0 0 0 0 0 0 0 0 0 0 0 0 0 0 0 0 0 0
0 0 0 0 0 0 0 0 0 0 0 0 0 0 0 0 0 0 0 0 0 0 0 0 0 0 0 0 0 0 0 0 0 0 0 0 0 0 0 0 0 0 0
CIN
0 0 0 0 0 0 0 0 0 0 0 0 0 0 0 0 0 0 0 0 0 0 0 0 0 0 0 0 0 0 0 0 0 0 0 -1 -1 -1 -1 -1 -6 0 0
0 0 0 0 0 0 0 0 0 0 0 0 0 0 0 0 0 0 0 0 0 0 0 0 0 0 0 0 0 0 0 0 0 0 0 -1 0 0 -5 0 -1 0 0
0 0 0 0 0 0 0 0 0 0 0 0 0 0 0 0 0 0 0 0 0 0 0 0 0 0 0 -1 0 0 0 0 0 0 0 -1 0 0 0 0 0 0 -4
0 0 0 0 0 0 0 0 0 0 0 0 0 0 0 0 0 0 0 0 0 0 0 0 0 0 0 0 0 0 0 0 0 0 0 0 0 0 0 0 0 0 0
0 0 0 0 0 0 0 0 0 0 0 0 0 0 0 0 0 0 0 0 0 0 0 0 0 -3 0 0 0 0 0 0 0 0 0 0 0 0 0 0 0 0 0
0 0 0 0 0 0 0 0 0 0 0 0 0 0 0 0 0 0 0 0 0 0 0 0 0 0 0 0 0 0 0 0 0 0 0 0 0 0 0 0 0 0 0
0 0 0 0 0 0 0 0 0 0 0 0 0 0 0 0 0 0 0 0 0 0 0 0 0 0 0 0 0 0 0 0 0 0 0 0 0 0 0 0 0 0 0
0 0 0 0 0 0 0 0 0 0 0 0 0 0 0 0 0 0 0 0 0 0 0 0 0 0 0 0 0 0 0 0 0 0 0 0 0 0 0 0 0 0 0
0 0 0 0 0 0 0 0 0 0 0 0 0 0 0 0 0 0 0 0 0 0 0 0 0 0 0 0 0 0 0 0 0 0 0 0 0 0 0 0 0 0 0
0 0 0 0 0 0 0 0 0 0 0 0 0 0 0 0 0 0 0 0 0 0 0 0 0 0 0 0 0 0 0 0 0 0 0 0 0 0 0 0 0 0 0
0 0 0 0 0 0 0 0 0 0 0 0 0 0 0 0 0 0 0 0 0 0 0 0 0 0 0 0 0 0 0 0 0 0 0 0 0 0 0 0 0 0 0
0 0 0 0 0 0 0 0 0 0 0 0 0 0 0 0 0 0 0 0 0 0 0 0 0 0 0 0 0 0 0 0 0 0 0 0 0 0 0 0 0 0 0
0 0 0 0 0 0 0 0 0 0 0 0 0 0 0 0 0 0 0 0 0 0 0 0 0 0 0 0 0 0 0 0 0 0 0 0 0 0 0 0 0 0 0
0 0 0 0 0 0 0 0 0 0 0 0 0 0 0 0 0 0 0 0 0 0 0 0 0 0 0 0 0 0 0 0 0 0 0 0 0 0 0 0 0 0 0
0 0 0 0 0 0 0 0 0 0 0 0 0 0 0 0 0 0 0 0 0 0 0 0 0 0 0 0 0 0 0 0 0 0 0 0 0 0 0 0 0 0 0
0 0 0 0 0 0 0 0 0 0 0 0 0 0 0 0 0 0 0 0 0 0 0 0 0 0 0 0 0 0 0 0 0 0 0 0 0 0 0 0 0 0 0
0 0 0 0 0 0 0 0 0 0 0 0 0 0 0 0 0 0 0 0 0 0 0 0 0 0 0 0 0 0 0 0 0 0 0 0 0 0 0 0 0 0 0
0 0 0 0 0 0 0 0 0 0 0 0 0 0 0 0 0 0 0 0 0 0 0 0 0 0 0 0 0 0 0 0 0 0 0 0 0 0 0 0 0 0 0
0 0 0 0 0 0 0 0 0 0 0 0 0 0 0 0 0 0 0 0 0 0 0 0 0 0 0 0 0 0 0 0 0 0 0 0 0 0 0 0 0 0 0
0 0 0 0 0 0 0 0 0 0 0 0 0 0 0 0 0 0 0 0 0 0 0 0 0 0 0 0 0 0 0 0 0 0 0 0 0 0 0 0 0 0 0
0 0 0 0 0 0 0 0 0 0 0 0 0 0 0 0 0 0 0 0 0 0 0 0 0 0 0 0 0 0 0 0 0 0 0 0 0 0 0 0 0 0 0
0 0 0 0 0 0 0 0 0 0 0 0 0 0 0 0 0 0 0 0 0 0 0 0 0 0 0 0 0 0 0 0 0 0 0 0 0 0 0 0 0 0 0
0 0 0 0 0 0 0 0 0 0 0 0 0 0 0 0 0 0 0 0 0 0 0 0 0 0 0 0 0 0 0 0 0 0 0 0 0 0 0 0 0 0 0
0 0 0 0 0 0 0 0 0 0 0 0 0 0 0 0 0 0 0 0 0 0 0 0 0 0 0 0 0 0 0 0 0 0 0 0 0 0 0 0 0 0 0
0 0 0 0 0 0 0 0 0 0 0 0 0 0 0 0 0 0 0 0 0 0 0 0 0 0 0 0 0 0 0 0 0 0 0 0 0 0 0 0 0 0 0
0 0 0 0 0 0 0 0 0 0 0 0 0 0 0 0 0 0 0 0 0 0 0 0 0 0 0 0 0 0 0 0 0 0 0 0 0 0 0 0 0 0 0
Wind_Speed
11 13 14 16 18 19 20 20 21 22 23 24 25 27 26 28 28 28 27 28 29 28 29 30 30 30 32 34 34 34 34 33 34 37 40 42 44 45 44 41 38 37 36
12 13 15 17 18 19 20 20 21 22 22 23 26 26 28 28 29 29 28 27 27 29 29 29 31 31 33 35 35 35 33 33 33 39 41 47 48 46 46 44 39 35 34
11 13 15 17 18 20 20 20 21 21 23 25 26 28 29 29 29 28 26 26 27 27 29 30 31 32 34 34 34 32 32 31 31 35 41 42 44 46 46 42 40 37 33
11 13 15 17 19 19 19 20 21 22 24 26 27 28 29 29 28 28 27 27 27 28 30 30 31 32 33 34 33 33 32 33 33 34 38 41 42 44 42 42 42 38 33
11 13 15 17 19 19 19 20 21 23 24 25 26 28 28 27 27 26 26 27 28 29 30 30 30 31 34 35 35 34 33 35 35 36 37 37 39 44 46 39 37 34 30
10 12 14 16 17 18 19 20 21 22 23 24 26 27 27 26 26 26 26 27 28 28 29 30 30 32 34 35 34 33 34 35 35 35 36 35 33 36 36 35 33 29 22
10 12 15 16 16 17 18 19 20 21 21 23 25 26 26 25 25 25 26 26 25 26 28 30 32 32 33 33 33 34 33 34 31 32 33 31 30 31 31 31 28 21 14
10 13 14 15 15 16 17 18 19 19 20 22 24 24 24 24 25 25 24 24 25 26 28 29 30 31 32 34 34 34 33 32 31 30 29 27 27 26 27 27 22 20 14
11 12 13 14 15 16 16 17 17 18 18 21 23 23 23 23 25 25 23 23 26 27 27 29 30 31 35 35 33 32 30 32 30 30 27 26 26 25 23 24 26 22 20
11 12 13 14 15 15 16 16 17 17 18 19 21 21 22 22 23 25 24 23 25 27 28 30 33 37 34 34 31 29 31 30 27 27 29 29 28 26 24 23 23 25 24
11 12 13 14 15 15 16 16 16 16 17 18 19 20 21 22 24 25 25 24 25 28 30 31 32 36 35 32 30 29 26 23 26 27 28 28 30 28 25 24 24 24 24
11 12 13 14 14 15 16 16 17 16 16 16 17 19 22 22 25 26 26 27 27 29 32 30 31 35 35 32 29 28 27 27 29 29 29 30 29 27 24 22 22 23 20
10 12 13 14 14 15 16 16 16 16 15 16 18 20 21 22 24 26 27 28 30 30 30 31 33 35 34 32 31 30 29 30 29 30 30 27 25 23 22 23 24 23 22
10 11 12 13 14 15 16 16 16 17 17 17 18 20 20 22 23 25 27 28 30 30 30 32 33 34 34 32 32 32 30 29 27 27 25 24 24 25 25 24 23 23 24
10 11 11 12 13 14 16 17 18 18 18 18 18 19 20 21 23 24 27 30 29 30 29 32 35 36 37 37 35 33 32 30 29 27 27 27 26 27 25 25 26 24 25
10 11 11 11 12 14 15 17 18 18 19 19 18 19 19 20 22 24 28 29 30 31 31 33 33 34 35 36 36 34 34 34 31 28 28 27 26 25 24 26 26 26 25
10 11 12 11 12 14 16 18 19 18 18 19 18 19 19 21 23 24 25 28 30 30 32 32 32 33 33 34 34 34 35 35 32 32 30 29 27 25 24 25 27 25 23
11 12 12 13 12 14 16 18 19 18 18 17 17 18 19 20 23 25 25 26 29 31 31 31 32 32 32 33 33 34 35 37 38 37 36 34 31 28 26 25 24 23 24
11 12 12 12 12 14 16 18 18 18 17 16 16 17 18 19 22 25 26 27 28 29 30 30 30 31 31 31 32 33 34 36 38 38 39 39 38 35 32 29 25 23 21
13 12 11 11 13 15 17 19 17 17 16 15 16 17 16 18 22 24 26 27 27 28 28 29 29 30 30 31 31 32 34 36 38 38 39 39 40 39 38 35 33 29 26
12 12 11 12 14 17 18 17 17 15 14 16 16 17 16 17 20 23 25 27 27 27 27 28 28 29 30 30 31 31 33 34 36 37 38 39 39 40 40 39 37 35 32
12 11 11 13 16 18 17 17 16 15 15 16 16 15 15 17 20 22 24 26 26 26 26 27 27 28 29 30 31 31 32 33 34 36 37 37 38 39 39 39 39 38 37
12 12 13 15 17 17 16 16 15 15 15 15 14 14 15 17 19 21 23 24 25 25 25 26 26 27 28 29 30 31 31 32 33 33 35 36 37 38 38 38 39 39 38
14 13 14 14 15 15 15 15 15 15 13 13 14 16 15 16 19 20 22 23 24 24 25 25 26 28 28 29 30 31 31 32 31 32 33 34 35 36 36 37 37 38 37
16 15 14 14 15 14 13 13 13 12 12 13 15 15 16 17 18 20 22 22 23 24 25 25 26 27 29 30 31 32 33 33 33 33 33 33 35 35 35 35 36 36 36
15 14 14 14 12 13 10 11 11 10 11 12 14 16 17 17 19 20 21 22 22 23 23 24 26 27 29 30 32 33 33 34 34 34 33 34 34 35 35 35 35 35 35
Wind_Direction
44 45 40 30 23 23 25 29 33 33 32 29 26 23 27 21 22 24 24 23 20 20 20 21 21 21 17 16 15 12 10 9 2 359 358 357 353 350 349 347 345 342 339
43 37 26 21 19 20 21 28 32 34 33 31 27 30 26 24 21 20 23 26 24 20 19 23 22 23 20 15 15 15 14 11 7 3 3 360 359 356 352 351 351 350 346
34 29 23 22 22 22 27 32 38 39 33 32 30 25 22 22 24 26 28 31 29 27 24 21 23 22 19 19 18 18 16 14 13 8 5 5 4 3 360 1 360 355 356
26 23 16 16 18 23 29 34 38 33 31 31 29 25 22 24 29 34 37 37 33 29 23 23 25 23 21 19 20 18 18 16 14 11 10 10 11 11 11 9 5 4 2
18 12 11 18 23 28 30 36 31 27 29 32 27 24 27 31 35 39 41 36 30 25 21 26 28 25 21 20 19 20 20 17 16 14 13 15 16 15 14 17 16 18 22
12 10 19 23 25 26 31 34 30 28 32 30 26 27 32 40 37 42 42 37 32 31 27 26 28 24 21 20 22 24 22 20 19 19 18 17 19 19 20 21 24 30 39
10 13 16 20 23 29 34 32 28 32 37 33 29 33 36 46 39 41 40 43 42 36 30 25 23 24 22 23 24 24 24 24 25 22 21 22 22 23 24 25 29 31 36
19 17 20 24 26 32 34 33 34 41 41 34 32 37 42 46 35 38 47 46 41 37 32 28 27 25 24 21 21 23 24 26 27 28 27 27 27 27 29 30 29 33 35
25 27 32 34 32 35 37 38 31 40 43 34 33 39 43 45 31 33 42 43 37 33 32 28 26 25 19 20 22 23 26 27 29 30 30 30 31 32 33 33 35 36 44
40 39 41 35 36 33 33 30 26 35 37 31 33 38 41 41 30 28 33 38 32 28 28 26 21 16 21 21 24 27 26 28 30 31 34 35 36 36 36 40 42 46 52
43 41 38 36 33 37 25 20 20 24 28 26 31 35 38 36 26 23 27 30 31 25 22 21 21 15 19 23 28 29 31 31 33 35 35 37 37 40 41 44 51 53 56
44 39 32 31 29 24 20 12 15 18 22 23 29 31 29 29 17 20 24 25 25 21 17 21 21 16 18 25 30 32 35 37 37 37 39 38 40 42 42 46 51 57 63
39 31 29 32 31 29 22 17 15 13 18 15 20 20 22 25 21 11 15 16 13 18 18 17 17 14 19 26 29 33 36 38 38 38 39 41 41 40 44 47 51 56 61
31 27 25 37 34 23 16 18 12 5 5 6 9 11 16 17 17 14 11 14 13 14 16 14 15 17 19 27 29 32 36 39 40 41 42 41 43 43 45 45 49 50 54
21 14 22 29 35 26 10 5 7 4 357 360 5 9 10 12 15 16 8 6 12 16 19 15 13 15 13 16 23 29 34 36 38 41 42 42 43 43 46 46 47 50 53
10 5 15 25 14 13 10 8 2 5 353 357 6 6 13 18 19 15 9 8 9 10 15 14 16 18 16 16 19 26 29 30 35 39 40 41 43 44 44 46 47 49 53
357 358 1 9 5 5 358 352 354 358 354 352 359 3 8 9 14 14 15 14 11 13 14 14 16 17 18 19 19 23 22 26 32 32 35 37 39 43 45 46 46 49 52
350 350 351 352 356 1 353 347 352 355 355 352 356 357 4 9 8 8 12 13 10 12 16 15 14 15 17 20 20 20 19 18 18 21 24 29 33 37 39 43 46 47 49
344 344 346 353 358 357 354 349 354 357 356 356 356 357 8 9 6 5 7 12 11 11 11 14 16 15 15 18 19 20 21 19 18 18 17 17 19 26 30 34 40 45 49
333 339 348 352 352 350 344 343 349 353 356 1 358 358 6 3 359 359 4 7 8 7 9 11 13 16 15 16 17 17 16 14 14 16 17 16 13 15 18 24 26 31 39
340 341 347 350 342 342 343 342 346 353 356 355 356 359 7 6 5 4 3 4 3 4 6 8 10 12 13 14 14 15 14 15 16 15 15 15 14 10 10 11 14 17 23
349 353 346 341 334 330 339 347 351 352 353 355 358 8 13 8 6 5 5 3 4 5 7 8 9 11 11 10 10 9 10 10 12 12 13 12 11 11 10 8 7 8 9
337 337 332 330 332 335 339 341 343 342 347 356 5 11 10 9 7 6 6 6 5 5 8 10 10 10 10 10 9 9 7 5 6 8 9 10 9 6 7 6 5 3 3
324 330 329 332 336 338 338 338 338 340 349 355 4 1 6 4 4 6 6 5 5 6 7 8 9 8 7 7 6 5 5 2 2 2 3 4 5 5 5 4 3 2 1
314 317 321 326 330 333 338 338 338 344 351 353 356 3 2 1 3 2 2 2 2 2 3 5 5 5 5 4 3 1 359 358 358 357 359 358 358 358 0 2 1 1 360
312 316 320 321 328 332 342 334 343 351 355 356 356 352 353 355 357 358 359 0 1 3 4 6 6 4 3 2 359 358 356 355 355 354 356 356 355 355 354 355 355 357 356